| time (UTC) | temp F | wind direction | speed knots | gust knots | rain 1hr in | rain 24hr in | rain mn in | humidity % | barometer mb |
| 20260503053049 | 80 | 0 | 3.5 | 7.8 | 0.00 | 0.00 | 0.00 | 78 | 1015.5 |
| 20260503051919 | 80 | 0 | 2.6 | 7.8 | 0.00 | 0.00 | 0.00 | 78 | 1015.7 |
| 20260503051416 | 81 | 0 | 1.7 | 8.7 | 0.00 | 0.00 | 0.00 | 78 | 1015.8 |
| 20260503050918 | 81 | 0 | 1.7 | 8.7 | 0.00 | 0.00 | 0.00 | 78 | 1015.7 |
| 20260503050425 | 81 | 0 | 2.6 | 8.7 | 0.00 | 0.00 | 0.00 | 78 | 1015.7 |
| 20260503045923 | 81 | 0 | 2.6 | 8.7 | 0.00 | 0.00 | 0.00 | 78 | 1016.0 |
| 20260503045417 | 81 | 0 | 2.6 | 7.8 | 0.00 | 0.00 | 0.00 | 78 | 1015.9 |
| 20260503044903 | 81 | 0 | 2.6 | 7.8 | 0.00 | 0.00 | 0.00 | 77 | 1016.0 |
| 20260503044413 | 81 | 0 | 3.5 | 10.4 | 0.00 | 0.00 | 0.00 | 77 | 1015.8 |
| 20260503043904 | 81 | 0 | 4.3 | 10.4 | 0.00 | 0.00 | 0.00 | 77 | 1015.9 |
| 20260503043358 | 81 | 0 | 4.3 | 10.4 | 0.00 | 0.00 | 0.00 | 77 | 1016.0 |
| 20260503042841 | 81 | 0 | 3.5 | 10.4 | 0.00 | 0.00 | 0.00 | 77 | 1016.0 |
| 20260503041650 | 81 | 0 | 3.5 | 7.8 | 0.00 | 0.00 | 0.00 | 76 | 1015.9 |
| 20260503041152 | 81 | 0 | 3.5 | 7.8 | 0.00 | 0.00 | 0.00 | 76 | 1015.8 |
| 20260503040641 | 81 | 0 | 2.6 | 7.0 | 0.00 | 0.00 | 0.00 | 76 | 1015.7 |
| 20260503040137 | 81 | 0 | 3.5 | 10.4 | 0.00 | 0.00 | 0.00 | 76 | 1015.7 |
| 20260503035638 | 81 | 0 | 3.5 | 10.4 | 0.00 | 0.00 | 0.00 | 76 | 1015.7 |
| 20260503035129 | 81 | 0 | 3.5 | 11.3 | 0.00 | 0.00 | 0.00 | 75 | 1015.7 |
| 20260503034638 | 81 | 0 | 4.3 | 11.3 | 0.00 | 0.00 | 0.00 | 75 | 1015.7 |
| 20260503033534 | 81 | 0 | 3.5 | 11.3 | 0.00 | 0.00 | 0.00 | 75 | 1015.6 |
| 20260503032418 | 82 | 0 | 3.5 | 9.6 | 0.00 | 0.00 | 0.00 | 74 | 1015.3 |
| 20260503031244 | 82 | 0 | 3.5 | 14.8 | 0.00 | 0.00 | 0.00 | 73 | 1015.4 |
| 20260503030119 | 82 | 0 | 4.3 | 14.8 | 0.00 | 0.00 | 0.00 | 73 | 1015.3 |
| 20260503024936 | 82 | 0 | 5.2 | 11.3 | 0.00 | 0.00 | 0.00 | 71 | 1015.3 |
| 20260503024429 | 82 | 0 | 5.2 | 11.3 | 0.00 | 0.00 | 0.00 | 71 | 1015.2 |
| 20260503023913 | 82 | 0 | 4.3 | 12.2 | 0.00 | 0.00 | 0.00 | 70 | 1015.5 |
| 20260503023414 | 82 | 0 | 5.2 | 12.2 | 0.00 | 0.00 | 0.00 | 70 | 1015.3 |
| 20260503022922 | 83 | 0 | 5.2 | 12.2 | 0.00 | 0.00 | 0.00 | 70 | 1015.4 |
| 20260503022423 | 83 | 0 | 6.1 | 12.2 | 0.00 | 0.00 | 0.00 | 70 | 1015.4 |
| 20260503021922 | 83 | 0 | 6.1 | 12.2 | 0.00 | 0.00 | 0.00 | 69 | 1015.4 |
| 20260503021426 | 83 | 0 | 5.2 | 12.2 | 0.00 | 0.00 | 0.00 | 69 | 1015.3 |
| 20260503020928 | 83 | 0 | 4.3 | 12.2 | 0.00 | 0.00 | 0.00 | 69 | 1015.3 |
| 20260503020429 | 83 | 0 | 5.2 | 13.0 | 0.00 | 0.00 | 0.00 | 69 | 1015.1 |
| 20260503015925 | 83 | 0 | 6.1 | 13.0 | 0.00 | 0.00 | 0.00 | 68 | 1015.1 |
| 20260503015414 | 83 | 0 | 6.1 | 13.0 | 0.00 | 0.00 | 0.00 | 67 | 1015.2 |
| 20260503013627 | 84 | 0 | 6.1 | 12.2 | 0.00 | 0.00 | 0.00 | 64 | 1015.0 |
| 20260503013134 | 84 | 0 | 6.1 | 12.2 | 0.00 | 0.00 | 0.00 | 63 | 1014.9 |
| 20260503012631 | 84 | 0 | 4.3 | 11.3 | 0.00 | 0.00 | 0.00 | 62 | 1014.7 |
| 20260503012121 | 84 | 0 | 4.3 | 10.4 | 0.00 | 0.00 | 0.00 | 62 | 1014.7 |
| 20260503011628 | 85 | 0 | 5.2 | 13.9 | 0.00 | 0.00 | 0.00 | 61 | 1014.6 |
| 20260503011118 | 85 | 0 | 5.2 | 13.9 | 0.00 | 0.00 | 0.00 | 61 | 1014.6 |
| 20260503005347 | 85 | 0 | 6.1 | 16.5 | 0.00 | 0.00 | 0.00 | 59 | 1014.4 |
| 20260503004833 | 86 | 0 | 6.1 | 12.2 | 0.00 | 0.00 | 0.00 | 58 | 1014.2 |
| 20260503004340 | 86 | 0 | 7.0 | 15.6 | 0.00 | 0.00 | 0.00 | 57 | 1014.3 |
| 20260503003833 | 86 | 0 | 7.0 | 15.6 | 0.00 | 0.00 | 0.00 | 57 | 1014.1 |
| 20260503003330 | 86 | 0 | 7.8 | 15.6 | 0.00 | 0.00 | 0.00 | 56 | 1014.0 |
| 20260503002814 | 86 | 0 | 7.0 | 15.6 | 0.00 | 0.00 | 0.00 | 55 | 1014.0 |
| 20260503001648 | 87 | 0 | 7.0 | 15.6 | 0.00 | 0.00 | 0.00 | 53 | 1013.8 |
| 20260503001145 | 87 | 0 | 7.8 | 15.6 | 0.00 | 0.00 | 0.00 | 52 | 1013.8 |
| 20260503000638 | 88 | 0 | 7.0 | 15.6 | 0.00 | 0.00 | 0.00 | 52 | 1013.7 |
| 20260503000119 | 88 | 0 | 7.0 | 15.6 | 0.00 | 0.00 | 0.00 | 51 | 1013.6 |
| 20260502235605 | 88 | 0 | 6.1 | 13.9 | 0.00 | 0.00 | 0.00 | 50 | 1013.5 |
| 20260502235049 | 89 | 0 | 4.3 | 13.9 | 0.00 | 0.00 | 0.00 | 49 | 1013.5 |
| 20260502234538 | 89 | 0 | 3.5 | 10.4 | 0.00 | 0.00 | 0.00 | 47 | 1013.3 |
| 20260502234021 | 89 | 0 | 4.3 | 10.4 | 0.00 | 0.00 | 0.00 | 47 | 1013.2 |
| 20260502233528 | 89 | 0 | 5.2 | 12.2 | 0.00 | 0.00 | 0.00 | 46 | 1013.1 |
| 20260502231755 | 90 | 0 | 4.3 | 12.2 | 0.00 | 0.00 | 0.00 | 45 | 1012.7 |
| 20260502231256 | 90 | 0 | 6.1 | 12.2 | 0.00 | 0.00 | 0.00 | 44 | 1012.7 |
| 20260502230740 | 90 | 0 | 6.1 | 12.2 | 0.00 | 0.00 | 0.00 | 44 | 1012.6 |
| 20260502230234 | 90 | 0 | 5.2 | 12.2 | 0.00 | 0.00 | 0.00 | 44 | 1012.4 |
| 20260502225739 | 90 | 0 | 5.2 | 12.2 | 0.00 | 0.00 | 0.00 | 43 | 1012.4 |
| 20260502225220 | 91 | 0 | 7.0 | 13.0 | 0.00 | 0.00 | 0.00 | 43 | 1012.4 |
| 20260502224706 | 91 | 0 | 5.2 | 13.0 | 0.00 | 0.00 | 0.00 | 43 | 1012.4 |
| 20260502222850 | 92 | 0 | 7.0 | 17.4 | 0.00 | 0.00 | 0.00 | 42 | 1012.3 |
| 20260502222354 | 92 | 0 | 7.8 | 17.4 | 0.00 | 0.00 | 0.00 | 42 | 1012.3 |
| 20260502221854 | 92 | 0 | 6.1 | 17.4 | 0.00 | 0.00 | 0.00 | 41 | 1012.3 |
| 20260502221352 | 93 | 0 | 5.2 | 17.4 | 0.00 | 0.00 | 0.00 | 41 | 1012.2 |
| 20260502215558 | 93 | 0 | 6.1 | 15.6 | 0.00 | 0.00 | 0.00 | 41 | 1012.1 |
| 20260502214424 | 93 | 0 | 7.0 | 17.4 | 0.00 | 0.00 | 0.00 | 40 | 1012.2 |
| 20260502213926 | 93 | 0 | 7.0 | 17.4 | 0.00 | 0.00 | 0.00 | 40 | 1012.0 |
| 20260502213412 | 93 | 0 | 7.8 | 17.4 | 0.00 | 0.00 | 0.00 | 40 | 1011.9 |
| 20260502212246 | 93 | 0 | 7.0 | 17.4 | 0.00 | 0.00 | 0.00 | 41 | 1011.8 |
| 20260502211753 | 93 | 0 | 7.0 | 16.5 | 0.00 | 0.00 | 0.00 | 41 | 1011.9 |
| 20260502211302 | 93 | 0 | 7.0 | 16.5 | 0.00 | 0.00 | 0.00 | 41 | 1011.9 |
| 20260502210748 | 93 | 0 | 7.0 | 20.0 | 0.00 | 0.00 | 0.00 | 40 | 1011.9 |
| 20260502210243 | 93 | 0 | 7.8 | 20.0 | 0.00 | 0.00 | 0.00 | 41 | 1011.8 |
| 20260502205751 | 93 | 0 | 7.8 | 20.0 | 0.00 | 0.00 | 0.00 | 41 | 1011.8 |
| 20260502203940 | 93 | 0 | 6.1 | 16.5 | 0.00 | 0.00 | 0.00 | 42 | 1011.9 |
| 20260502203437 | 93 | 0 | 6.1 | 14.8 | 0.00 | 0.00 | 0.00 | 43 | 1011.9 |
| 20260502202918 | 94 | 0 | 7.0 | 20.0 | 0.00 | 0.00 | 0.00 | 42 | 1011.8 |
| 20260502202407 | 94 | 0 | 7.8 | 20.0 | 0.00 | 0.00 | 0.00 | 41 | 1011.9 |
| 20260502201909 | 94 | 0 | 8.7 | 20.0 | 0.00 | 0.00 | 0.00 | 41 | 1011.9 |
| 20260502201354 | 93 | 0 | 7.8 | 20.0 | 0.00 | 0.00 | 0.00 | 42 | 1012.0 |
| 20260502200851 | 94 | 0 | 5.2 | 17.4 | 0.00 | 0.00 | 0.00 | 42 | 1012.1 |
| 20260502200334 | 94 | 0 | 6.1 | 17.4 | 0.00 | 0.00 | 0.00 | 45 | 1012.1 |
| 20260502195204 | 93 | 0 | 7.8 | 18.2 | 0.00 | 0.00 | 0.00 | 44 | 1012.1 |
| 20260502194655 | 94 | 0 | 6.1 | 19.1 | 0.00 | 0.00 | 0.00 | 43 | 1012.3 |
| 20260502193533 | 93 | 0 | 7.8 | 19.1 | 0.00 | 0.00 | 0.00 | 44 | 1012.2 |
| 20260502190506 | 93 | 0 | 8.7 | 19.1 | 0.00 | 0.00 | 0.00 | 46 | 1012.5 |
| 20260502185948 | 91 | 0 | 6.1 | 19.1 | 0.00 | 0.00 | 0.00 | 50 | 1012.5 |
| 20260502185456 | 91 | 0 | 3.5 | 16.5 | 0.00 | 0.00 | 0.00 | 53 | 1012.5 |
| 20260502184938 | 90 | 0 | 5.2 | 15.6 | 0.00 | 0.00 | 0.00 | 56 | 1012.5 |
| 20260502184429 | 88 | 0 | 6.1 | 15.6 | 0.00 | 0.00 | 0.00 | 69 | 1012.6 |
| 20260502183917 | 88 | 0 | 7.0 | 20.0 | 0.00 | 0.00 | 0.00 | 63 | 1012.5 |
| 20260502182749 | 86 | 0 | 9.6 | 20.0 | 0.00 | 0.00 | 0.00 | 75 | 1012.7 |
| 20260502182235 | 86 | 0 | 7.8 | 20.0 | 0.00 | 0.00 | 0.00 | 76 | 1012.9 |
| 20260502181723 | 86 | 0 | 7.0 | 16.5 | 0.00 | 0.00 | 0.00 | 76 | 1012.6 |
| 20260502181229 | 86 | 0 | 7.0 | 17.4 | 0.00 | 0.00 | 0.00 | 75 | 1013.1 |
| 20260502180120 | 85 | 0 | 8.7 | 20.0 | 0.00 | 0.00 | 0.00 | 79 | 1013.1 |
| 20260502164055 | 83 | 0 | 9.6 | 16.5 | 0.00 | 0.00 | 0.00 | 84 | 1013.7 |
| 20260502163604 | 83 | 0 | 8.7 | 16.5 | 0.00 | 0.00 | 0.00 | 84 | 1013.8 |
| 20260502163105 | 83 | 0 | 7.8 | 16.5 | 0.00 | 0.00 | 0.00 | 83 | 1013.7 |
| 20260502162615 | 83 | 0 | 8.7 | 16.5 | 0.00 | 0.00 | 0.00 | 83 | 1013.7 |
| 20260502160859 | 83 | 0 | 8.7 | 16.5 | 0.00 | 0.00 | 0.00 | 83 | 1013.8 |
| 20260502160344 | 83 | 0 | 9.6 | 15.6 | 0.00 | 0.00 | 0.00 | 83 | 1014.1 |
| 20260502152150 | 84 | 0 | 8.7 | 19.1 | 0.00 | 0.00 | 0.00 | 82 | 1014.2 |
| 20260502151635 | 83 | 0 | 8.7 | 19.1 | 0.00 | 0.00 | 0.00 | 84 | 1014.3 |
| 20260502151140 | 83 | 0 | 8.7 | 19.1 | 0.00 | 0.00 | 0.00 | 84 | 1014.2 |
| 20260502150650 | 83 | 0 | 9.6 | 19.1 | 0.00 | 0.00 | 0.00 | 84 | 1014.3 |
| 20260502150132 | 83 | 0 | 9.6 | 17.4 | 0.00 | 0.00 | 0.00 | 83 | 1014.3 |
| 20260502130351 | 83 | 0 | 2.6 | 10.4 | 0.00 | 0.00 | 0.00 | 82 | 1013.8 |
| 20260502122654 | 81 | 0 | 2.6 | 7.0 | 0.00 | 0.00 | 0.00 | 84 | 1013.9 |
| 20260502122152 | 80 | 0 | 1.7 | 6.1 | 0.00 | 0.00 | 0.00 | 85 | 1013.8 |
| 20260502121634 | 80 | 0 | 0.9 | 3.5 | 0.00 | 0.00 | 0.00 | 85 | 1013.8 |
| 20260502121117 | 79 | 0 | 0.9 | 3.5 | 0.00 | 0.00 | 0.00 | 85 | 1013.7 |
| 20260502120606 | 79 | 0 | 1.7 | 4.3 | 0.00 | 0.00 | 0.00 | 85 | 1013.7 |
| 20260502115540 | 78 | 0 | 1.7 | 4.3 | 0.00 | 0.00 | 0.00 | 86 | 1013.7 |
| 20260502115031 | 78 | 0 | 0.9 | 4.3 | 0.00 | 0.00 | 0.00 | 86 | 1013.7 |
| 20260502114528 | 78 | 0 | 0.0 | 2.6 | 0.00 | 0.00 | 0.00 | 86 | 1013.8 |
| 20260502114011 | 77 | 0 | 0.0 | 0.0 | 0.00 | 0.00 | 0.00 | 86 | 1013.9 |
| 20260502112845 | 77 | 0 | 0.0 | 0.0 | 0.00 | 0.00 | 0.00 | 87 | 1013.9 |
| 20260502111737 | 77 | 0 | 0.0 | 0.0 | 0.00 | 0.00 | 0.00 | 87 | 1013.9 |
| 20260502110606 | 77 | 0 | 0.0 | 0.0 | 0.00 | 0.00 | 0.00 | 87 | 1013.7 |
| 20260502105543 | 77 | 0 | 0.9 | 2.6 | 0.00 | 0.00 | 0.00 | 86 | 1013.8 |
| 20260502105043 | 76 | 0 | 0.0 | 2.6 | 0.00 | 0.00 | 0.00 | 86 | 1013.7 |
| 20260502104553 | 76 | 0 | 0.0 | 1.7 | 0.00 | 0.00 | 0.00 | 86 | 1013.8 |
| 20260502104103 | 77 | 0 | 0.0 | 1.7 | 0.00 | 0.00 | 0.00 | 86 | 1013.8 |
| 20260502103613 | 77 | 0 | 0.0 | 1.7 | 0.00 | 0.00 | 0.00 | 86 | 1013.6 |
| 20260502103111 | 76 | 0 | 0.0 | 1.7 | 0.00 | 0.00 | 0.00 | 86 | 1013.7 |
| 20260502102553 | 76 | 0 | 0.0 | 1.7 | 0.00 | 0.00 | 0.00 | 86 | 1013.7 |
| 20260502102052 | 76 | 0 | 0.9 | 1.7 | 0.00 | 0.00 | 0.00 | 85 | 1013.6 |
| 20260502101537 | 76 | 0 | 0.0 | 1.7 | 0.00 | 0.00 | 0.00 | 86 | 1013.5 |
| 20260502101023 | 76 | 0 | 0.0 | 1.7 | 0.00 | 0.00 | 0.00 | 85 | 1013.6 |
| 20260502100512 | 76 | 0 | 0.0 | 0.0 | 0.00 | 0.00 | 0.00 | 85 | 1013.6 |
| 20260502091333 | 75 | 0 | 0.0 | 0.9 | 0.00 | 0.00 | 0.00 | 84 | 1013.7 |
| 20260502090820 | 75 | 0 | 0.0 | 0.9 | 0.00 | 0.00 | 0.00 | 84 | 1013.7 |
| 20260502090315 | 76 | 0 | 0.0 | 1.7 | 0.00 | 0.00 | 0.00 | 84 | 1013.6 |
| 20260502065340 | 76 | 0 | 0.9 | 2.6 | 0.00 | 0.00 | 0.00 | 84 | 1013.7 |
| 20260502064826 | 76 | 0 | 0.9 | 3.5 | 0.00 | 0.00 | 0.00 | 84 | 1013.8 |
| 20260502064308 | 77 | 0 | 0.9 | 3.5 | 0.00 | 0.00 | 0.00 | 85 | 1013.8 |
| 20260502063759 | 77 | 0 | 1.7 | 4.3 | 0.00 | 0.00 | 0.00 | 85 | 1013.8 |
| 20260502063305 | 78 | 0 | 0.9 | 4.3 | 0.00 | 0.00 | 0.00 | 87 | 1013.7 |
| 20260502062759 | 78 | 0 | 0.0 | 1.7 | 0.00 | 0.00 | 0.00 | 87 | 1013.7 |
| 20260502062306 | 78 | 0 | 0.0 | 1.7 | 0.00 | 0.00 | 0.00 | 86 | 1013.8 |
| 20260502060538 | 78 | 0 | 0.9 | 3.5 | 0.00 | 0.00 | 0.00 | 86 | 1013.8 |
| 20260502060022 | 78 | 0 | 0.9 | 3.5 | 0.00 | 0.00 | 0.00 | 85 | 1013.8 |
| 20260502055525 | 78 | 0 | 1.7 | 4.3 | 0.00 | 0.00 | 0.00 | 85 | 1013.8 |
| 20260502054340 | 79 | 0 | 2.6 | 7.8 | 0.00 | 0.00 | 0.00 | 85 | 1013.8 |
| 20260502053843 | 79 | 0 | 3.5 | 7.8 | 0.00 | 0.00 | 0.00 | 85 | 1013.8 |